TimeCDT,TemperatureF,Dew PointF,Humidity,Sea Level PressureIn,VisibilityMPH,Wind Direction,Wind SpeedMPH,Gust SpeedMPH,PrecipitationIn,Events,Conditions,WindDirDegrees,DateUTC
12:54 AM,66.9,61.0,81,29.88,10.0,West,15.0,-,0.01,,Overcast,280,2013-10-05 05:54:00
1:54 AM,60.1,48.9,67,29.91,10.0,West,5.8,-,0.00,,Partly Cloudy,270,2013-10-05 06:54:00
2:54 AM,57.9,44.1,60,29.92,10.0,WNW,8.1,-,0.00,,Mostly Cloudy,290,2013-10-05 07:54:00
3:54 AM,57.0,43.0,59,29.96,10.0,West,10.4,-,N/A,,Partly Cloudy,270,2013-10-05 08:54:00
4:54 AM,55.9,39.9,55,29.94,10.0,WNW,10.4,16.1,0.00,,Scattered Clouds,290,2013-10-05 09:54:00
5:54 AM,54.0,37.0,53,29.95,10.0,North,-9999.0,-,N/A,,Unknown,0,2013-10-05 10:54:00
6:54 AM,54.0,37.0,53,29.98,10.0,North,-9999.0,-,N/A,,Unknown,0,2013-10-05 11:54:00
6:58 AM,53.6,37.4,54,29.99,10.0,West,11.5,-,N/A,,Mostly Cloudy,280,2013-10-05 11:58:00
7:54 AM,-9999,-9999,N/A,30.00,10.0,North,-9999.0,-,N/A,,Unknown,0,2013-10-05 12:54:00
8:54 AM,54.0,-9999,N/A,30.01,10.0,North,-9999.0,-,N/A,,Unknown,0,2013-10-05 13:54:00
10:54 AM,52.0,35.1,53,30.03,-9999.0,North,-9999.0,-,N/A,,Unknown,0,2013-10-05 15:54:00
11:54 AM,57.9,37.9,47,30.01,10.0,West,9.2,-,N/A,,Scattered Clouds,260,2013-10-05 16:54:00
12:54 PM,57.9,37.0,46,30.00,10.0,West,10.4,20.7,N/A,,Mostly Cloudy,280,2013-10-05 17:54:00
1:54 PM,59.0,37.9,46,29.98,10.0,West,9.2,21.9,N/A,,Clear,270,2013-10-05 18:54:00
2:54 PM,60.1,36.0,41,29.95,10.0,WSW,13.8,21.9,N/A,,Clear,250,2013-10-05 19:54:00
3:54 PM,60.1,36.0,41,29.94,10.0,West,15.0,21.9,N/A,,Clear,260,2013-10-05 20:54:00
4:54 PM,59.0,36.0,42,29.94,10.0,West,19.6,23.0,N/A,,Clear,260,2013-10-05 21:54:00
5:54 PM,57.9,35.1,42,29.93,10.0,SW,12.7,-,N/A,,Clear,220,2013-10-05 22:54:00
6:54 PM,57.0,36.0,45,29.92,10.0,SW,6.9,-,N/A,,Clear,230,2013-10-05 23:54:00
7:54 PM,57.0,37.0,47,29.92,10.0,SSW,8.1,-,N/A,,Overcast,210,2013-10-06 00:54:00
8:54 PM,55.0,37.9,53,29.93,10.0,WSW,6.9,-,N/A,,Clear,240,2013-10-06 01:54:00
9:54 PM,54.0,35.1,49,29.94,10.0,West,6.9,-,N/A,,Clear,270,2013-10-06 02:54:00
10:54 PM,52.0,34.0,50,29.94,10.0,West,5.8,-,N/A,,Clear,270,2013-10-06 03:54:00
11:54 PM,51.1,34.0,52,29.92,10.0,SW,8.1,-,N/A,,Clear,230,2013-10-06 04:54:00